AI4ZL Weather Reports


Display with metric or nautical units.
time (UTC)temp
F
wind
direction
speed
MPH
gust
MPH
rain 1hr
in
rain 24hr
in
rain mn
in
humidity
%
barometer
mb
20260906110247 73 0.0 0.0 0.00 0.00 0.00 99 1014.3
20260906105241 73 0.0 0.0 0.00 0.00 0.00 99 1014.3
20260906104237 73 0.0 0.0 0.00 0.00 0.00 99 1014.2
20260906103252 73 0.0 0.0 0.00 0.00 0.00 99 1014.0
20260906102248 73 0.0 0.0 0.00 0.00 0.00 99 1013.8
20260906101243 73 0.0 0.0 0.00 0.00 0.00 99 1013.8
20260906100237 73 0.0 0.0 0.00 0.00 0.00 99 1013.8
20260906095232 73 0.0 0.0 0.00 0.00 0.00 99 1013.7
20260906094248 73 0.0 0.0 0.00 0.00 0.00 99 1013.6
20260906093303 73 0.0 0.0 0.00 0.00 0.00 99 1013.6
20260906092258 74 309 0.0 1.0 0.00 0.00 0.00 99 1013.5
20260906091233 74 313 0.0 1.0 0.00 0.00 0.00 99 1013.3
20260906090309 74 0.0 0.0 0.00 0.00 0.00 99 1013.3
20260906085244 74 314 0.0 1.0 0.00 0.00 0.00 99 1013.3
20260906084258 74 318 0.0 1.0 0.00 0.00 0.00 99 1013.4
20260906083232 75 313 0.0 1.0 0.00 0.00 0.00 99 1013.3
20260906082247 75 25 0.0 1.0 0.00 0.00 0.00 98 1013.3
20260906081243 75 67 0.0 1.0 0.00 0.00 0.00 98 1013.3
20260906080239 75 0.0 0.0 0.00 0.00 0.00 98 1013.2
20260906075234 75 0.0 0.0 0.00 0.00 0.00 98 1013.1
20260906074230 75 306 0.0 1.0 0.00 0.00 0.00 98 1013.1
20260906073246 76 0.0 0.0 0.00 0.00 0.00 97 1013.2
20260906072241 76 0.0 0.0 0.00 0.00 0.00 97 1013.0
20260906071236 76 307 1.0 1.0 0.00 0.00 0.00 96 1013.2
20260906070231 76 313 0.0 1.0 0.00 0.00 0.00 97 1013.1
20260906065247 76 316 0.0 1.0 0.00 0.00 0.00 98 1013.2
20260906064301 76 331 0.0 1.0 0.00 0.00 0.00 98 1013.4
20260906063236 76 345 0.0 1.0 0.00 0.00 0.00 98 1013.4
20260906062250 76 322 0.0 1.0 0.00 0.00 0.00 98 1013.5
20260906061245 76 318 0.0 1.0 0.00 0.00 0.00 98 1013.6
20260906060239 76 304 0.0 1.0 0.00 0.00 0.00 98 1013.8
20260906055235 77 0.0 0.0 0.00 0.00 0.00 97 1013.7
20260906054250 77 0.0 0.0 0.00 0.00 0.00 97 1013.7
20260906053245 77 0.0 0.0 0.00 0.00 0.00 97 1013.8
20260906052239 77 0.0 0.0 0.00 0.00 0.00 97 1013.6
20260906051234 77 318 0.0 1.0 0.00 0.00 0.00 97 1013.8
20260906050250 77 0.0 0.0 0.00 0.00 0.00 97 1013.9
20260906045246 77 0.0 0.0 0.00 0.00 0.00 97 1013.6
20260906044242 77 312 0.0 1.0 0.00 0.00 0.00 97 1013.7
20260906043236 78 0.0 0.0 0.00 0.00 0.00 97 1013.7
20260906042252 78 302 0.0 1.0 0.00 0.00 0.00 97 1013.6
20260906041307 78 0.0 0.0 0.00 0.00 0.00 96 1013.5
20260906040242 78 0.0 0.0 0.00 0.00 0.00 96 1013.6
20260906035258 79 0.0 0.0 0.00 0.00 0.00 95 1013.5
20260906034253 79 0.0 0.0 0.00 0.00 0.00 95 1013.4
20260906033308 79 0.0 0.0 0.00 0.00 0.00 95 1013.3
20260906032242 79 0.0 0.0 0.00 0.00 0.00 94 1013.3
20260906031237 79 0.0 0.0 0.00 0.00 0.00 93 1013.3
20260906030232 79 0.0 0.0 0.00 0.00 0.00 93 1013.3
20260906025307 79 309 0.0 1.0 0.00 0.00 0.00 92 1013.1
20260906024242 80 336 0.0 1.0 0.00 0.00 0.00 92 1013.1
20260906023238 80 223 0.0 1.0 0.00 0.00 0.00 92 1013.0
20260906022233 81 214 0.0 1.0 0.00 0.00 0.00 90 1012.9
20260906021247 81 336 0.0 1.0 0.00 0.00 0.00 89 1013.0
20260906020241 81 209 1.0 3.0 0.00 0.00 0.00 90 1012.8
20260906015236 81 292 1.0 1.0 0.00 0.00 0.00 90 1012.6
20260906014231 82 0.0 0.0 0.00 0.00 0.00 88 1012.4
20260906013245 83 321 0.0 1.0 0.00 0.00 0.00 86 1012.4
20260906012240 83 294 0.0 1.0 0.00 0.00 0.00 85 1012.3
20260906011255 84 284 1.0 1.0 0.00 0.00 0.00 85 1012.4
20260906010230 84 312 0.0 1.0 0.00 0.00 0.00 86 1012.4
20260906005245 85 313 0.0 1.0 0.00 0.00 0.00 83 1012.3
20260906004301 87 309 0.0 1.0 0.00 0.00 0.00 79 1012.4
20260906003238 87 321 0.0 1.0 0.00 0.00 0.00 78 1012.3
20260906002234 88 307 0.0 1.0 0.00 0.00 0.00 76 1012.3
20260906001309 90 304 0.0 1.0 0.00 0.00 0.00 73 1012.3
20260906000244 91 304 0.0 1.0 0.00 0.00 0.00 71 1012.3
20260905235239 92 294 1.0 2.0 0.00 0.00 0.00 69 1012.3
20260905234234 92 299 1.0 2.0 0.00 0.00 0.00 69 1012.5
20260905233249 92 305 1.0 1.0 0.00 0.00 0.00 68 1012.5
20260905232243 93 284 1.0 2.0 0.00 0.00 0.00 66 1012.5
20260905231238 94 278 1.0 2.0 0.00 0.00 0.00 61 1012.3
20260905230253 95 268 2.0 2.0 0.00 0.00 0.00 60 1012.3
20260905225308 95 286 1.0 2.0 0.00 0.00 0.00 58 1012.2
20260905224303 96 272 1.0 2.0 0.00 0.00 0.00 57 1012.2
20260905223258 96 266 2.0 3.0 0.00 0.00 0.00 56 1012.3
20260905222233 98 249 3.0 6.0 0.00 0.00 0.00 54 1012.3
20260905221250 99 258 4.0 7.0 0.00 0.00 0.00 52 1012.4
20260905220246 100 261 3.0 6.0 0.00 0.00 0.00 50 1012.3
20260905215242 99 255 2.0 4.0 0.00 0.00 0.00 52 1012.4
20260905214257 101 280 3.0 8.0 0.00 0.00 0.00 48 1012.4
20260905213232 102 270 3.0 4.0 0.00 0.00 0.00 48 1012.4
20260905212247 102 270 1.0 3.0 0.00 0.00 0.00 47 1012.5
20260905211242 101 300 2.0 7.0 0.00 0.00 0.00 47 1012.5
20260905210237 101 257 3.0 6.0 0.00 0.00 0.00 49 1012.6
20260905205232 102 298 2.0 6.0 0.00 0.00 0.00 48 1012.8
20260905204248 102 303 1.0 2.0 0.00 0.00 0.00 46 1012.8
20260905203243 102 290 2.0 6.0 0.00 0.00 0.00 46 1012.7
20260905202237 102 308 1.0 3.0 0.00 0.00 0.00 47 1013.0
20260905201232 102 273 3.0 7.0 0.00 0.00 0.00 48 1013.1
20260905200247 102 356 1.0 3.0 0.00 0.00 0.00 48 1013.4
20260905195242 102 287 1.0 3.0 0.00 0.00 0.00 49 1013.7
20260905194236 103 20 1.0 3.0 0.00 0.00 0.00 49 1013.8
20260905193252 102 274 1.0 2.0 0.00 0.00 0.00 49 1013.8
20260905192246 102 295 1.0 1.0 0.00 0.00 0.00 49 1013.9
20260905191241 102 299 1.0 2.0 0.00 0.00 0.00 49 1014.0
20260905190256 101 274 2.0 3.0 0.00 0.00 0.00 49 1014.2
20260905185231 102 29 1.0 3.0 0.00 0.00 0.00 50 1014.3
20260905184246 101 23 1.0 2.0 0.00 0.00 0.00 50 1014.5
20260905183241 100 335 1.0 3.0 0.00 0.00 0.00 50 1014.6
20260905182236 101 282 2.0 4.0 0.00 0.00 0.00 50 1014.6
20260905181232 102 42 1.0 2.0 0.00 0.00 0.00 49 1014.7
20260905180247 100 308 1.0 3.0 0.00 0.00 0.00 50 1014.9
20260905175243 99 345 1.0 3.0 0.00 0.00 0.00 53 1015.1
20260905174237 101 300 1.0 4.0 0.00 0.00 0.00 52 1015.1
20260905173232 99 290 1.0 4.0 0.00 0.00 0.00 52 1015.1
20260905172247 98 310 2.0 6.0 0.00 0.00 0.00 54 1015.2
20260905171302 98 264 2.0 4.0 0.00 0.00 0.00 55 1015.3
20260905170238 99 284 2.0 6.0 0.00 0.00 0.00 54 1015.5
20260905165233 98 326 2.0 4.0 0.00 0.00 0.00 54 1015.6
20260905164248 98 273 2.0 6.0 0.00 0.00 0.00 56 1015.6
20260905163243 99 0 1.0 2.0 0.00 0.00 0.00 55 1015.7
20260905162238 97 277 1.0 2.0 0.00 0.00 0.00 56 1015.8
20260905161233 98 277 1.0 2.0 0.00 0.00 0.00 59 1015.8
20260905160248 97 307 1.0 3.0 0.00 0.00 0.00 58 1015.8
20260905155244 97 325 1.0 2.0 0.00 0.00 0.00 59 1015.8
20260905154239 95 61 1.0 3.0 0.00 0.00 0.00 64 1016.0
20260905153233 95 40 1.0 3.0 0.00 0.00 0.00 65 1016.1
20260905152248 93 79 1.0 2.0 0.00 0.00 0.00 67 1016.0
20260905151242 93 60 1.0 3.0 0.00 0.00 0.00 68 1016.0
20260905150239 93 43 1.0 3.0 0.00 0.00 0.00 68 1015.9
20260905145235 92 35 1.0 3.0 0.00 0.00 0.00 70 1016.0
20260905144231 93 42 1.0 2.0 0.00 0.00 0.00 69 1015.9
20260905143247 92 17 0.0 2.0 0.00 0.00 0.00 71 1015.9
20260905142242 91 50 1.0 1.0 0.00 0.00 0.00 73 1016.0
20260905141237 89 15 1.0 2.0 0.00 0.00 0.00 75 1016.0
20260905140231 87 273 2.0 3.0 0.00 0.00 0.00 76 1015.9
20260905135246 88 0.0 0.0 0.00 0.00 0.00 79 1016.1
20260905134241 86 0.0 0.0 0.00 0.00 0.00 81 1015.9
20260905133236 85 0.0 0.0 0.00 0.00 0.00 85 1015.9
20260905132230 81 0.0 0.0 0.00 0.00 0.00 94 1016.0
20260905131246 80 0.0 0.0 0.00 0.00 0.00 99 1015.8
20260905130241 78 0.0 0.0 0.00 0.00 0.00 99 1015.9
20260905125234 76 0.0 0.0 0.00 0.00 0.00 99 1015.8
20260905124249 75 0.0 0.0 0.00 0.00 0.00 99 1015.7
20260905123244 74 0.0 0.0 0.00 0.00 0.00 99 1015.6
20260905122238 74 0.0 0.0 0.00 0.00 0.00 99 1015.7
20260905121234 73 0.0 0.0 0.00 0.00 0.00 99 1015.5
20260905120248 73 0.0 0.0 0.00 0.00 0.00 99 1015.5
20260905115243 73 0.0 0.0 0.00 0.00 0.00 99 1015.4
20260905114237 73 0.0 0.0 0.00 0.00 0.00 99 1015.4
20260905113230 72 0.0 0.0 0.00 0.00 0.00 99 1015.3
20260905112245 73 0.0 0.0 0.00 0.00 0.00 99 1015.3
20260905111240 72 0.0 0.0 0.00 0.00 0.00 99 1015.3